STARLINK-30264, 57534

Orbit data source: Space-Track

STARLINK-30264, 57534 is a payload satellite owned by SpaceX/Seattle (US) in LEO that was launched on Tue, 08 Aug 2023 UTC via an FALCON 9 launch vehicle from the Air Force Western Test Range (AFWTR). Payload-class satellites include a variety of spacecraft equipped with specific instruments for various scientific and technological missions. These include communications satellites like Starlink; space stations such as the ISS; scientific satellites like the Hubble; Earth observation satellites from companies like Planet Labs, Umbra, and HawkEye 360; GPS; miniature CubeSats for education and research; and military/defense satellites.

Loading next visibility...
Identifier
57534, 2023-115P
Orbit
LEO
Country
Flag of USUS
Related business
Manufacturer
SpaceX/Seattle
Mission
Operational Commercial Communications
Bus & Motor
STARLINK V2M, Unknown motor
Mass
730 kg wet, ~700 kg dry
Launch date (UTC)
2023-08-08 (3 years ago)
Launch vehicle
FALCON 9
Launch site
Air Force Western Test Range (AFWTR)
Object type
Payload
Rocket body
Debris
Shape & HBR
Box + 2 Pan, 17.7 m
Radar Cross Section
33.884 m², Large (>1 m²)

Expand to show TLE details & history
Last TLE update: 3 days ago

TLE from 3 days ago
0 STARLINK-30264
1 57534U 23115P   26170.54153399 -.00000599  00000-0 -12236-4 0  9994
2 57534  43.0056 353.6941 0001250 270.3153  89.7555 15.27573206160930
Epoch: 2026-06-19T12:59Z
TLE epoch observation values (Epoch: 2026-06-19T12:59:48.536Z)
Latitude
-0.00006°
Longitude
-109.02723°
Altitude
482.842 km
Speed
7.626 km/s
True Right ascension
23h 34m 46s
True Declination
0° 00' 00"
Sunlit
Object was in daylight at epoch
Visualization orbit readout
Latitude
Unknown
Longitude
Unknown
Altitude
Unknown
Speed
Unknown
Apparent Right ascension
Unknown
Apparent Declination
Unknown
Sunlit
N/A
Visualization observer readout
Local Sidereal Time
21:28:17
Azimuth
Unknown
Elevation
Unknown
Doppler factor
Unknown
Orbital elements
Apogee altitude
485.872 km
Perigee altitude
484.156 km
Semi-major axis
6,863.151 km
Eccentricity
0.00013
Inclination
43.0056°
RAAN
353.6941°
Arg. of periapsis
270.3153°
True anomaly
89.76982°
Mean anomaly
89.7555°
Eccentric anomaly
89.76266°
Mean motion
3.81731 °/min
Orbital period
94.31 mins
BSTAR
-0.000012236
Loading maneuver chart data...
Computing Atmospheric mass density...
Loading historical data...
Loading historical data...
Loading historical data...
Loading historical data...
Loading historical data...
Loading historical data...
Loading historical data...

Documentation

Showing up to 5 results
|